TimeMDT,TemperatureF,Dew PointF,Humidity,Sea Level PressureIn,VisibilityMPH,Wind Direction,Wind SpeedMPH,Gust SpeedMPH,PrecipitationIn,Events,Conditions,WindDirDegrees,DateUTC
12:45 AM,42.8,37.4,81,29.60,6.0,SSW,10.4,-,0.00,Rain,Light Rain,210,2014-04-26 06:45:00
12:56 AM,41.0,36.9,85,29.47,5.0,SSW,11.5,-,0.01,Rain,Light Rain,210,2014-04-26 06:56:00
1:41 AM,39.2,37.4,93,29.59,8.0,SW,13.8,-,0.00,,Overcast,220,2014-04-26 07:41:00
1:56 AM,37.9,36.0,93,29.46,10.0,SW,13.8,-,0.00,,Mostly Cloudy,220,2014-04-26 07:56:00
2:56 AM,36.0,34.0,93,29.44,10.0,SE,6.9,-,N/A,,Clear,130,2014-04-26 08:56:00
3:56 AM,36.9,34.9,93,29.45,10.0,SE,5.8,-,N/A,,Mostly Cloudy,130,2014-04-26 09:56:00
4:56 AM,37.9,34.0,86,29.48,10.0,SSW,3.5,-,N/A,,Overcast,210,2014-04-26 10:56:00
5:56 AM,36.9,34.9,93,29.47,10.0,NE,5.8,-,N/A,,Scattered Clouds,50,2014-04-26 11:56:00
6:56 AM,34.9,34.9,100,29.47,9.0,North,6.9,-,N/A,,Scattered Clouds,350,2014-04-26 12:56:00
7:56 AM,36.9,36.9,100,29.45,9.0,NNW,9.2,-,N/A,,Scattered Clouds,330,2014-04-26 13:56:00
8:06 AM,37.4,35.6,93,29.55,9.0,NW,11.5,-,N/A,,Mostly Cloudy,320,2014-04-26 14:06:00
8:56 AM,36.9,36.0,97,29.45,8.0,NW,12.7,-,N/A,,Overcast,320,2014-04-26 14:56:00
9:06 AM,37.4,35.6,93,29.55,6.0,NNW,10.4,-,0.00,,Overcast,330,2014-04-26 15:06:00
9:13 AM,35.6,35.6,100,29.55,4.0,NNW,11.5,-,0.00,,Overcast,330,2014-04-26 15:13:00
9:24 AM,35.6,35.6,100,29.54,2.5,NNW,11.5,-,0.00,,Overcast,340,2014-04-26 15:24:00
9:56 AM,36.0,36.0,100,29.44,4.0,NNW,8.1,-,0.02,Rain,Light Rain,340,2014-04-26 15:56:00
10:15 AM,35.6,35.6,100,29.54,2.5,NW,8.1,-,0.00,Rain,Light Rain,310,2014-04-26 16:15:00
10:56 AM,34.9,34.9,100,29.45,2.0,WNW,8.1,-,0.04,Rain,Light Rain,300,2014-04-26 16:56:00
11:11 AM,35.6,35.6,100,29.54,2.0,WNW,6.9,-,0.00,Snow,Light Snow,300,2014-04-26 17:11:00
11:19 AM,33.8,33.8,100,29.53,1.8,NW,5.8,-,0.01,Snow,Light Snow,310,2014-04-26 17:19:00
11:39 AM,33.8,33.8,100,29.53,0.8,WNW,5.8,-,0.03,Snow,Light Snow,300,2014-04-26 17:39:00
11:48 AM,33.8,33.8,100,29.53,0.8,WNW,4.6,-,0.04,Snow,Light Snow,290,2014-04-26 17:48:00
11:56 AM,32.9,32.9,100,29.44,0.5,West,4.6,-,0.04,Fog-Snow,Light Snow,280,2014-04-26 17:56:00
12:05 PM,33.8,33.8,100,29.53,0.8,West,4.6,-,0.01,Snow,Light Snow,280,2014-04-26 18:05:00
12:56 PM,32.9,32.9,100,29.43,0.8,Calm,Calm,-,0.06,Snow,Light Snow,0,2014-04-26 18:56:00
1:04 PM,33.8,33.8,100,29.51,1.0,Calm,Calm,-,0.01,Snow,Light Snow,0,2014-04-26 19:04:00
1:13 PM,33.8,33.8,100,29.51,1.5,Calm,Calm,-,0.01,Snow,Light Snow,0,2014-04-26 19:13:00
1:32 PM,35.6,35.6,100,29.51,3.0,Calm,Calm,-,0.02,Snow,Light Snow,0,2014-04-26 19:32:00
1:40 PM,35.6,35.6,100,29.50,4.0,WSW,3.5,-,0.02,,Overcast,240,2014-04-26 19:40:00
1:56 PM,34.9,34.9,100,29.42,5.0,WSW,3.5,-,0.02,,Overcast,240,2014-04-26 19:56:00
2:03 PM,35.6,35.6,100,29.50,4.0,Calm,Calm,-,0.00,,Overcast,0,2014-04-26 20:03:00
2:49 PM,35.6,35.6,100,29.51,1.8,Calm,Calm,-,0.01,,Overcast,0,2014-04-26 20:49:00
2:56 PM,36.0,36.0,100,29.44,1.8,Calm,Calm,-,0.02,,Overcast,0,2014-04-26 20:56:00
3:03 PM,35.6,35.6,100,29.51,2.5,Calm,Calm,-,0.01,,Overcast,0,2014-04-26 21:03:00
3:20 PM,37.4,37.4,100,29.52,1.8,WNW,4.6,-,0.02,,Overcast,300,2014-04-26 21:20:00
3:56 PM,36.9,36.0,97,29.44,2.0,WNW,3.5,-,0.05,Rain,Light Rain,300,2014-04-26 21:56:00
4:16 PM,37.4,35.6,93,29.52,3.0,NW,3.5,-,0.02,Rain,Light Rain,320,2014-04-26 22:16:00
4:56 PM,36.9,36.0,97,29.45,2.0,East,4.6,-,0.04,Rain,Light Rain,80,2014-04-26 22:56:00
5:56 PM,34.9,34.9,100,29.48,2.5,SE,5.8,-,0.02,Rain,Light Rain,140,2014-04-26 23:56:00
6:10 PM,35.6,35.6,100,29.56,2.0,ESE,4.6,-,0.01,Snow,Light Snow,120,2014-04-27 00:10:00
6:17 PM,35.6,35.6,100,29.56,2.0,ESE,5.8,-,0.02,,Overcast,120,2014-04-27 00:17:00
6:56 PM,34.9,34.9,100,29.49,2.5,SSE,11.5,-,0.04,,Overcast,160,2014-04-27 00:56:00
7:15 PM,35.6,35.6,100,29.56,4.0,SSE,11.5,-,0.00,,Overcast,150,2014-04-27 01:15:00
7:56 PM,36.0,34.9,96,29.48,5.0,South,11.5,-,0.02,,Overcast,170,2014-04-27 01:56:00
8:56 PM,36.0,34.9,96,29.49,7.0,South,11.5,-,0.00,,Overcast,170,2014-04-27 02:56:00
9:56 PM,34.9,34.9,100,29.53,2.5,South,11.5,-,0.04,Snow,Light Snow,180,2014-04-27 03:56:00
10:23 PM,33.8,33.8,100,29.61,2.0,SSW,8.1,-,0.03,Snow,Light Snow,200,2014-04-27 04:23:00
10:30 PM,33.8,33.8,100,29.61,1.5,South,9.2,-,0.04,Snow,Light Snow,180,2014-04-27 04:30:00
10:37 PM,33.8,33.8,100,29.61,1.0,South,9.2,-,0.06,Snow,Light Snow,190,2014-04-27 04:37:00
10:45 PM,33.8,33.8,100,29.61,0.8,South,6.9,-,0.06,Snow,Light Snow,170,2014-04-27 04:45:00
10:56 PM,32.9,32.9,100,29.56,0.8,SSE,6.9,-,0.08,Snow,Light Snow,160,2014-04-27 04:56:00
11:23 PM,33.8,33.8,100,29.62,1.0,South,5.8,-,0.03,Snow,Light Snow,180,2014-04-27 05:23:00
11:32 PM,32.0,32.0,100,29.62,0.8,South,5.8,-,0.04,Snow,Light Snow,170,2014-04-27 05:32:00
11:56 PM,32.0,32.0,100,29.57,1.0,South,8.1,-,0.07,Snow,Light Snow,180,2014-04-27 05:56:00